Wetterdaten: aktuell Montag, 16.07.2018 18:00
Datum Zeit Temp. A. Auen 2 Feuchte A. Luftdruck Regen Wind Richtung Richtung Sonnenschein T Regen Solar Taupunkt Windchill Windben Empfang
16.07.2018 18:00 23,3 C 23,9 C 60 % 1011,2 hPa 0,0 l/m 3,8 km/h (1 Bft) W-NW 282 1 min 0 min 383 W/m 15,1 C 23,3 C 8,0 km/h (2 Bft) 91 %
16.07.2018 17:59 23,3 C 23,9 C 60 % 1011,2 hPa 0,0 l/m 6,0 km/h (2 Bft) W-NW 291 1 min 0 min 383 W/m 15,1 C 23,3 C 8,0 km/h (2 Bft) 100 %
16.07.2018 17:58 23,2 C 23,9 C 62 % 1011,1 hPa 0,0 l/m 3,4 km/h (1 Bft) NW 326 1 min 0 min 290 W/m 15,5 C 23,2 C 6,4 km/h (2 Bft) 91 %
16.07.2018 17:57 23,3 C 23,9 C 62 % 1011,2 hPa 0,0 l/m 3,8 km/h (1 Bft) SW 227 1 min 0 min 295 W/m 15,6 C 23,3 C 6,4 km/h (2 Bft) 100 %
16.07.2018 17:56 23,3 C 23,9 C 60 % 1011,3 hPa 0,0 l/m 5,4 km/h (1 Bft) W-SW 249 1 min 0 min 295 W/m 15,1 C 23,3 C 8,0 km/h (2 Bft) 92 %
16.07.2018 17:55 23,3 C 23,9 C 60 % 1011,2 hPa 0,0 l/m 6,8 km/h (2 Bft) W-NW 290 1 min 0 min 284 W/m 15,1 C 23,2 C 9,7 km/h (2 Bft) 96 %
16.07.2018 17:54 23,3 C 23,9 C 60 % 1011,3 hPa 0,0 l/m 6,9 km/h (2 Bft) NW 308 0 min 0 min 272 W/m 15,1 C 23,1 C 9,7 km/h (2 Bft) 92 %
16.07.2018 17:53 23,3 C 23,9 C 61 % 1011,2 hPa 0,0 l/m 3,7 km/h (1 Bft) W-NW 282 0 min 0 min 269 W/m 15,3 C 23,3 C 6,4 km/h (2 Bft) 91 %
16.07.2018 17:52 23,3 C 23,9 C 60 % 1011,2 hPa 0,0 l/m 0,5 km/h (0 Bft) W-NW 283 0 min 0 min 261 W/m 15,1 C 23,3 C 1,6 km/h (1 Bft) 100 %
16.07.2018 17:51 23,3 C 23,9 C 60 % 1011,3 hPa 0,0 l/m 3,1 km/h (1 Bft) W-NW 283 0 min 0 min 258 W/m 15,1 C 23,3 C 6,4 km/h (2 Bft) 100 %
16.07.2018 17:50 23,3 C 23,9 C 60 % 1011,3 hPa 0,0 l/m 0,9 km/h (0 Bft) W 273 0 min 0 min 251 W/m 15,1 C 23,3 C 3,2 km/h (1 Bft) 100 %
16.07.2018 17:49 23,3 C 23,9 C 62 % 1011,2 hPa 0,0 l/m 1,8 km/h (1 Bft) W 261 0 min 0 min 258 W/m 15,6 C 23,3 C 3,2 km/h (1 Bft) 100 %
16.07.2018 17:48 23,3 C 23,9 C 61 % 1011,2 hPa 0,0 l/m 3,2 km/h (1 Bft) W 269 0 min 0 min 277 W/m 15,3 C 23,3 C 6,4 km/h (2 Bft) 100 %
16.07.2018 17:47 23,3 C 23,9 C 60 % 1011,2 hPa 0,0 l/m 6,6 km/h (2 Bft) W-NW 295 1 min 0 min 587 W/m 15,1 C 23,2 C 8,0 km/h (2 Bft) 96 %
16.07.2018 17:46 23,2 C 23,9 C 60 % 1011,3 hPa 0,0 l/m 2,1 km/h (1 Bft) W-NW 299 1 min 0 min 587 W/m 15,0 C 23,2 C 6,4 km/h (2 Bft) 100 %
16.07.2018 17:45 23,2 C 23,9 C 60 % 1011,3 hPa 0,0 l/m 0,9 km/h (0 Bft) W-NW 301 1 min 0 min 469 W/m 15,0 C 23,2 C 3,2 km/h (1 Bft) 100 %
16.07.2018 17:44 23,2 C 23,9 C 59 % 1011,3 hPa 0,0 l/m 0,5 km/h (0 Bft) N-NW 343 1 min 0 min 406 W/m 14,7 C 23,2 C 1,6 km/h (1 Bft) 96 %
16.07.2018 17:43 23,2 C 23,9 C 58 % 1011,4 hPa 0,0 l/m 2,9 km/h (1 Bft) N 6 1 min 0 min 406 W/m 14,5 C 23,2 C 4,8 km/h (1 Bft) 100 %
16.07.2018 17:42 23,2 C 23,9 C 59 % 1011,3 hPa 0,0 l/m 3,4 km/h (1 Bft) N 4 1 min 0 min 381 W/m 14,7 C 23,2 C 6,4 km/h (2 Bft) 100 %
16.07.2018 17:41 23,2 C 23,9 C 58 % 1011,4 hPa 0,0 l/m 4,6 km/h (1 Bft) N-NW 341 1 min 0 min 316 W/m 14,5 C 23,2 C 6,4 km/h (2 Bft) 100 %
16.07.2018 17:40 23,3 C 23,9 C 58 % 1011,4 hPa 0,0 l/m 2,5 km/h (1 Bft) N-NW 343 1 min 0 min 300 W/m 14,6 C 23,3 C 6,4 km/h (2 Bft) 100 %
16.07.2018 17:39 23,3 C 23,9 C 58 % 1011,4 hPa 0,0 l/m 0,9 km/h (0 Bft) N-NW 343 0 min 0 min 276 W/m 14,6 C 23,3 C 1,6 km/h (1 Bft) 100 %
16.07.2018 17:38 23,3 C 23,9 C 59 % 1011,4 hPa 0,0 l/m 5,0 km/h (1 Bft) N-NW 344 0 min 0 min 270 W/m 14,8 C 23,3 C 8,0 km/h (2 Bft) 100 %
16.07.2018 17:37 23,3 C 23,9 C 60 % 1011,4 hPa 0,0 l/m 2,1 km/h (1 Bft) N 1 0 min 0 min 267 W/m 15,1 C 23,3 C 6,4 km/h (2 Bft) 100 %
16.07.2018 17:36 23,3 C 23,9 C 59 % 1011,4 hPa 0,0 l/m 5,6 km/h (1 Bft) NW 315 0 min 0 min 265 W/m 14,8 C 23,3 C 9,7 km/h (2 Bft) 100 %
16.07.2018 17:35 23,3 C 23,9 C 58 % 1011,4 hPa 0,0 l/m 3,3 km/h (1 Bft) W-NW 295 0 min 0 min 263 W/m 14,6 C 23,3 C 9,7 km/h (2 Bft) 100 %
16.07.2018 17:34 23,3 C 23,9 C 59 % 1011,4 hPa 0,0 l/m 1,8 km/h (1 Bft) W 276 0 min 0 min 258 W/m 14,8 C 23,3 C 6,4 km/h (2 Bft) 100 %
16.07.2018 17:33 23,3 C 23,9 C 59 % 1011,4 hPa 0,0 l/m 4,6 km/h (1 Bft) W-NW 301 0 min 0 min 251 W/m 14,8 C 23,3 C 8,0 km/h (2 Bft) 100 %
16.07.2018 17:32 23,3 C 23,9 C 60 % 1011,4 hPa 0,0 l/m 4,6 km/h (1 Bft) W-NW 300 0 min 0 min 249 W/m 15,1 C 23,3 C 8,0 km/h (2 Bft) 100 %
16.07.2018 17:31 23,3 C 23,9 C 59 % 1011,4 hPa 0,0 l/m 1,1 km/h (1 Bft) N-NO 12 0 min 0 min 247 W/m 14,8 C 23,3 C 4,8 km/h (1 Bft) 100 %
16.07.2018 17:30 23,3 C 23,9 C 60 % 1011,3 hPa 0,0 l/m 2,8 km/h (1 Bft) O-NO 62 0 min 0 min 244 W/m 15,1 C 23,3 C 4,8 km/h (1 Bft) 100 %
16.07.2018 17:29 23,2 C 23,9 C 61 % 1011,3 hPa 0,0 l/m 3,8 km/h (1 Bft) N-NW 334 0 min 0 min 240 W/m 15,3 C 23,2 C 6,4 km/h (2 Bft) 100 %
16.07.2018 17:28 23,2 C 23,9 C 60 % 1011,4 hPa 0,0 l/m 0,8 km/h (0 Bft) N 353 0 min 0 min 239 W/m 15,0 C 23,2 C 4,8 km/h (1 Bft) 100 %
16.07.2018 17:27 23,2 C 23,9 C 61 % 1011,3 hPa 0,0 l/m 3,0 km/h (1 Bft) N-NO 12 1 min 0 min 675 W/m 15,3 C 23,2 C 6,4 km/h (2 Bft) 100 %
16.07.2018 17:26 23,1 C 23,9 C 62 % 1011,3 hPa 0,0 l/m 4,1 km/h (1 Bft) NW 304 1 min 0 min 675 W/m 15,4 C 23,1 C 9,7 km/h (2 Bft) 100 %
16.07.2018 17:25 23,1 C 24,4 C 62 % 1011,4 hPa 0,0 l/m 5,0 km/h (1 Bft) NW 315 1 min 0 min 675 W/m 15,4 C 23,1 C 8,0 km/h (2 Bft) 100 %
16.07.2018 17:24 23,0 C 24,4 C 62 % 1011,3 hPa 0,0 l/m 1,7 km/h (1 Bft) NW 317 1 min 0 min 675 W/m 15,3 C 23,0 C 6,4 km/h (2 Bft) 100 %
16.07.2018 17:23 22,9 C 23,9 C 63 % 1011,3 hPa 0,0 l/m 4,5 km/h (1 Bft) N-NW 335 1 min 0 min 511 W/m 15,5 C 22,9 C 8,0 km/h (2 Bft) 100 %
16.07.2018 17:22 22,9 C 23,9 C 62 % 1011,3 hPa 0,0 l/m 6,9 km/h (2 Bft) W-NW 293 1 min 0 min 511 W/m 15,2 C 22,7 C 11,3 km/h (2 Bft) 100 %
16.07.2018 17:21 22,9 C 23,9 C 62 % 1011,3 hPa 0,0 l/m 6,8 km/h (2 Bft) NW 325 1 min 0 min 664 W/m 15,2 C 22,8 C 9,7 km/h (2 Bft) 100 %
16.07.2018 17:20 22,8 C 23,9 C 62 % 1011,3 hPa 0,0 l/m 7,5 km/h (2 Bft) NW 311 1 min 0 min 657 W/m 15,1 C 22,4 C 11,3 km/h (2 Bft) 100 %
16.07.2018 17:19 22,8 C 23,9 C 61 % 1011,3 hPa 0,0 l/m 2,1 km/h (1 Bft) W-NW 300 1 min 0 min 657 W/m 14,9 C 22,8 C 9,7 km/h (2 Bft) 100 %
16.07.2018 17:18 22,8 C 23,9 C 61 % 1011,4 hPa 0,0 l/m 1,1 km/h (1 Bft) N 359 1 min 0 min 631 W/m 14,9 C 22,8 C 3,2 km/h (1 Bft) 100 %
16.07.2018 17:17 22,8 C 23,9 C 61 % 1011,3 hPa 0,0 l/m 3,8 km/h (1 Bft) N-NO 19 0 min 0 min 300 W/m 14,9 C 22,8 C 6,4 km/h (2 Bft) 96 %
16.07.2018 17:16 22,8 C 23,9 C 61 % 1011,3 hPa 0,0 l/m 5,6 km/h (1 Bft) N-NO 13 0 min 0 min 300 W/m 14,9 C 22,8 C 9,7 km/h (2 Bft) 100 %
16.07.2018 17:15 22,8 C 23,9 C 62 % 1011,3 hPa 0,0 l/m 7,1 km/h (2 Bft) O-NO 58 0 min 0 min 277 W/m 15,1 C 22,6 C 12,9 km/h (3 Bft) 100 %
16.07.2018 17:14 22,8 C 23,9 C 61 % 1011,3 hPa 0,0 l/m 6,6 km/h (2 Bft) O-NO 74 0 min 0 min 277 W/m 14,9 C 22,7 C 11,3 km/h (2 Bft) 100 %
16.07.2018 17:13 22,8 C 23,9 C 62 % 1011,3 hPa 0,0 l/m 2,5 km/h (1 Bft) NO 52 0 min 0 min 277 W/m 15,1 C 22,8 C 3,2 km/h (1 Bft) 96 %
16.07.2018 17:12 22,9 C 23,9 C 62 % 1011,3 hPa 0,0 l/m 6,0 km/h (2 Bft) N-NO 33 0 min 0 min 254 W/m 15,2 C 22,9 C 8,0 km/h (2 Bft) 100 %
16.07.2018 17:11 22,9 C 23,9 C 62 % 1011,3 hPa 0,0 l/m 7,6 km/h (2 Bft) N-NO 25 1 min 0 min 615 W/m 15,2 C 22,5 C 11,3 km/h (2 Bft) 96 %
16.07.2018 17:10 22,9 C 23,9 C 62 % 1011,3 hPa 0,0 l/m 4,9 km/h (1 Bft) N-NO 15 1 min 0 min 615 W/m 15,2 C 22,9 C 8,0 km/h (2 Bft) 96 %
16.07.2018 17:09 22,9 C 23,9 C 62 % 1011,3 hPa 0,0 l/m 6,2 km/h (2 Bft) NO 53 1 min 0 min 699 W/m 15,2 C 22,9 C 8,0 km/h (2 Bft) 96 %
16.07.2018 17:08 22,9 C 23,9 C 62 % 1011,3 hPa 0,0 l/m 6,2 km/h (2 Bft) N-NO 21 1 min 0 min 546 W/m 15,2 C 22,9 C 11,3 km/h (2 Bft) 96 %
16.07.2018 17:07 22,9 C 23,9 C 63 % 1011,3 hPa 0,0 l/m 2,7 km/h (1 Bft) NO 37 1 min 0 min 546 W/m 15,5 C 22,9 C 8,0 km/h (2 Bft) 96 %
16.07.2018 17:06 22,9 C 23,9 C 61 % 1011,3 hPa 0,0 l/m 3,6 km/h (1 Bft) N-NO 28 1 min 0 min 546 W/m 15,0 C 22,9 C 6,4 km/h (2 Bft) 96 %
16.07.2018 17:05 22,9 C 23,9 C 62 % 1011,3 hPa 0,0 l/m 7,8 km/h (2 Bft) N-NO 30 0 min 0 min 286 W/m 15,2 C 22,5 C 11,3 km/h (2 Bft) 96 %
16.07.2018 17:04 22,9 C 23,9 C 62 % 1011,3 hPa 0,0 l/m 7,4 km/h (2 Bft) NW 306 0 min 0 min 286 W/m 15,2 C 22,6 C 11,3 km/h (2 Bft) 96 %
16.07.2018 17:03 22,9 C 23,9 C 62 % 1011,4 hPa 0,0 l/m 7,0 km/h (2 Bft) N-NO 18 0 min 0 min 297 W/m 15,2 C 22,7 C 11,3 km/h (2 Bft) 96 %
16.07.2018 17:02 23,0 C 23,9 C 62 % 1011,3 hPa 0,0 l/m 5,6 km/h (1 Bft) N-NW 330 1 min 0 min 363 W/m 15,3 C 23,0 C 8,0 km/h (2 Bft) 96 %
16.07.2018 17:01 23,0 C 23,9 C 62 % 1011,4 hPa 0,0 l/m 5,6 km/h (1 Bft) N-NW 348 1 min 0 min 392 W/m 15,3 C 23,0 C 9,7 km/h (2 Bft) 96 %
16.07.2018 17:00 23,0 C 23,9 C 62 % 1011,4 hPa 0,0 l/m 8,4 km/h (2 Bft) NO 48 1 min 0 min 356 W/m 15,3 C 22,4 C 11,3 km/h (2 Bft) 96 %
_ Min-Zeit 02:53 01:30 15:56 17:58 - 19:08 - - - - - 15:56 02:54 19:08 00:24
Minimum _ 15,0 C 15,6 C 52 % 1011,1 hPa - 0,0 km/h (0 Bft) - - - - - 12,5 C 15,0 C 0,0 km/h (0 Bft) 75 %
_ Max-Zeit 16:21 16:19 05:04 22:35 03:08 16:57 - - 19:00 03:08 15:32 19:56 16:21 16:18 19:00
Maximum _ 23,7 C 25,6 C 94 % 1014,7 hPa 0,3 l/m 10,5 km/h
NW (2 Bft)
- - 1 min 1 min 1056 W/m 16,6 C 23,7 C 17,7 km/h
O-SO (3 Bft)
100 %
Durchschnitt _ 18,2 C 19,0 C 82 % 1013,7 hPa #1,5 l/m 2,0 km/h (1 Bft) NW - #4:27 h #6 min. 242 W/m 14,9 C 18,2 C 4,0 km/h (1 Bft) 98 %